Weather History for KFMY - November, 2012

Change the Weather History Date:

Friday, November 2, 2012

  Actual Average Record
Temperature  
Mean Temperature 71 °F 74 °F  
Max Temperature 80 °F 84 °F 89 °F (1973)
Min Temperature 62 °F 65 °F 47 °F (2014)
Degree Days  
Heating Degree Days 0 0  
Month to date heating degree days 0 0  
Since 1 July heating degree days 3 2  
Cooling Degree Days 6 9  
Month to date cooling degree days 11 19  
Year to date cooling degree days 4111 3667  
Growing Degree Days 20 (Base 50)    
Moisture  
Dew Point 56 °F    
Average Humidity 70    
Maximum Humidity 93    
Minimum Humidity 32    
Precipitation  
Precipitation 0.00 in 0.09 in 1.94 in (1922)
Month to date precipitation 0.00 0.17  
Year to date precipitation 46.77 52.43  
Sea Level Pressure  
Sea Level Pressure 30.06 in    
Wind  
Wind Speed 4 mph (North)    
Max Wind Speed 13 mph    
Max Gust Speed 15 mph    
Visibility 8 miles    
Events      
T = Trace of Precipitation, MM = Missing Value Source: NWS Daily Summary

Daily Weather History Graph

Daily Weather History Graph

Search for Another Location

Airport or City:

Trip Planner

Search our weather history database for the weather conditions in past years. The results will help you decide how hot, cold, wet, or windy it might be!

Date:

Astronomy

Nov. 02, 2012 Rise Set
Actual Time 7:37 AM EDT 6:43 PM EDT
Civil Twilight 7:13 AM EDT 7:07 PM EDT
Nautical Twilight 6:46 AM EDT 7:35 PM EDT
Astronomical Twilight 6:19 AM EDT 8:02 PM EDT
Moon 9:40 PM EDT (11/2) 10:46 AM EDT (11/2)
Length of Visible Light 11h 53m
Length of Day
11h 06m
Waning Gibbous, 87% of the Moon is Illuminated
Nov 2
Waning Gibbous
Nov 6
Last Quarter
Nov 13
New
Nov 20
First Quarter
Nov 28
Full

Hourly Weather History & Observations

Time (EDT) Temp. Dew Point Humidity Pressure Visibility Wind Dir Wind Speed Gust Speed Precip Events Conditions
12:53 AM 66.0 °F 63.0 °F 90% 30.04 in 10.0 mi Calm Calm - N/A   Clear
1:53 AM 66.0 °F 63.0 °F 90% 30.04 in 10.0 mi Variable 5.8 mph - N/A   Mostly Cloudy
2:53 AM 66.9 °F 64.0 °F 90% 30.03 in 10.0 mi Calm Calm - N/A   Clear
3:53 AM 64.9 °F 63.0 °F 93% 30.03 in 10.0 mi Calm Calm - N/A   Clear
4:53 AM 63.0 °F 61.0 °F 93% 30.03 in 9.0 mi Calm Calm - N/A   Clear
5:53 AM 64.0 °F 61.0 °F 90% 30.04 in 7.0 mi Calm Calm - N/A   Clear
6:04 AM 64.4 °F 60.8 °F 88% 30.04 in 2.0 mi Calm Calm - N/A   Clear
6:11 AM 64.4 °F 62.6 °F 94% 30.04 in 1.8 mi Calm Calm - N/A   Clear
6:16 AM 64.4 °F 60.8 °F 88% 30.04 in 3.0 mi Calm Calm - N/A   Clear
6:53 AM 64.9 °F 61.0 °F 87% 30.06 in 7.0 mi Calm Calm - N/A   Clear
7:17 AM 64.4 °F 60.8 °F 88% 30.05 in 2.0 mi NNE 4.6 mph - N/A   Clear
7:27 AM 62.6 °F 60.8 °F 94% 30.05 in 7.0 mi NNE 4.6 mph - N/A   Clear
7:53 AM 63.0 °F 60.1 °F 90% 30.07 in 5.0 mi NE 5.8 mph - N/A   Clear
8:53 AM 64.9 °F 61.0 °F 87% 30.09 in 10.0 mi ENE 4.6 mph - N/A   Unknown
9:53 AM 68.0 °F 54.0 °F 61% 30.11 in 10.0 mi NE 5.8 mph - N/A   Clear
10:53 AM 71.1 °F 48.9 °F 45% 30.11 in 10.0 mi ENE 5.8 mph - N/A   Clear
11:53 AM 75.0 °F 48.9 °F 40% 30.11 in 10.0 mi NNE 6.9 mph - N/A   Clear
12:53 PM 77.0 °F 46.9 °F 34% 30.09 in 10.0 mi ENE 4.6 mph - N/A   Clear
1:53 PM 78.1 °F 46.9 °F 33% 30.06 in 10.0 mi NW 8.1 mph - N/A   Clear
2:53 PM 78.1 °F 46.9 °F 33% 30.04 in 10.0 mi Calm Calm - N/A   Clear
3:53 PM 79.0 °F 48.0 °F 34% 30.03 in 10.0 mi WNW 4.6 mph - N/A   Clear
4:53 PM 79.0 °F 46.0 °F 31% 30.03 in 10.0 mi NW 8.1 mph - N/A   Clear
5:53 PM 75.9 °F 50.0 °F 40% 30.03 in 10.0 mi NW 9.2 mph - N/A   Clear
6:53 PM 71.1 °F 57.0 °F 61% 30.05 in 10.0 mi WNW 9.2 mph - N/A   Clear
7:53 PM 69.1 °F 59.0 °F 70% 30.06 in 10.0 mi NW 5.8 mph - N/A   Clear
8:53 PM 66.9 °F 57.0 °F 70% 30.07 in 10.0 mi NNW 5.8 mph - N/A   Clear
9:53 PM 64.9 °F 55.0 °F 70% 30.09 in 10.0 mi NNW 3.5 mph - N/A   Clear
10:53 PM 64.0 °F 55.0 °F 73% 30.10 in 10.0 mi NNW 3.5 mph - N/A   Clear
11:53 PM 63.0 °F 55.0 °F 75% 30.10 in 10.0 mi North 3.5 mph - N/A   Clear